Погода в Аррасе

Франция     50°17′13″N   2°46′36″E
темп.,
°C
ветер,
м/с
пор.,
м/с
влажн.,
%
обл.,
%
осадки,
мм/ч
давл.,
гПа
погр.,
м
22 сентября, ср
ср2223:00+12всв227126 0.0 103132
02:00+11в2274100 0.0 103019
05:00+10всв1174100 0.0 102914
08:00+10всв227480 0.0 103023
11:00+15вюв2359100 0.0 1030330
14:00+18вюв2248100 0.0 1028770
17:00+19ю1146100 0.0 1026830
20:00+15ююв1159100 0.0 102612
23 сентября, чт
чт2323:00+13ююз226490 0.0 102615
02:00+12юз33699 0.0 102439
05:00+11зюз337755 0.0 102352
08:00+10зюз368512 0.0 1023100
11:00+16з57695 0.0 1022408
14:00+20з67558 0.0 1020867
17:00+19з685783 0.0 1020776
20:00+14з4880100 0.0 1020251
24 сентября, пт
пт2423:00+14з488278 0.0 1020232
02:00+12з37955 0.0 1020137
05:00+12зюз489714 0.0 1019179
08:00+12зюз489892 0.0 1019229
11:00+15зюз578691 0.0 1019408
14:00+20зюз566551 0.0 10181079
17:00+20зюз566314 0.0 10171002
20:00+15зсз36800 0.0 1017136
25 сентября, сб
сб2523:00+12з36860 0.0 1018112
02:00+12зюз369618 0.0 1017114
05:00+11зюз33761 0.0 101748
08:00+11зюз22760 0.0 101723
11:00+17ююз2358100 0.0 1017299
14:00+21ю225228 0.0 1016825
17:00+23юв224794 0.0 10151068
20:00+18вюв226438 0.0 101515
26 сентября, вс
вс2623:00+17вюв3465100 0.0 101562
02:00+17юв23695 0.0 101545
05:00+15ююв22785 0.0 101428
08:00+14ю35805 0.0 101480
11:00+20ю4664100 0.0 1014376
14:00+24ююз575467 0.0 10141209
17:00+23зюз585129 0.0 10131713
20:00+17зсз22695 0.1 101444